This is the latest recevied weather packets stored in our database for station/object OE3PDB-4. If no packets are shown the sender has not sent any weather packets the latest 10 day(s).
| Time | Temp. | Humidity | Pressure | Rain* | Wind** | Luminosity | Snow |
|---|---|---|---|---|---|---|---|
| 1777467613 | 18.89° C | 24% | 1022.1 hPa | 0 mm | - | - | - |
| 1777467013 | 19.44° C | 23% | 1022.1 hPa | 0 mm | - | - | - |
| 1777466413 | 19.44° C | 25% | 1022.4 hPa | 0 mm | - | - | - |
| 1777465813 | 18.89° C | 23% | 1022.4 hPa | 0 mm | - | - | - |
| 1777465213 | 19.44° C | 23% | 1022.4 hPa | 0 mm | - | - | - |
| 1777464613 | 19.44° C | 25% | 1022.5 hPa | 0 mm | - | - | - |
| 1777464013 | 19.44° C | 26% | 1022.3 hPa | 0 mm | - | - | - |
| 1777463413 | 18.89° C | 25% | 1022.4 hPa | 0 mm | - | - | - |
| 1777462813 | 18.33° C | 26% | 1022.5 hPa | 0 mm | - | - | - |
| 1777462213 | 18.33° C | 26% | 1022.5 hPa | 0 mm | - | - | - |
| 1777461613 | 18.33° C | 26% | 1022.6 hPa | 0 mm | - | - | - |
| 1777461013 | 18.33° C | 26% | 1022.7 hPa | 0 mm | - | - | - |
| 1777460413 | 18.33° C | 26% | 1022.8 hPa | 0 mm | - | - | - |
| 1777459813 | 17.78° C | 28% | 1022.8 hPa | 0 mm | - | - | - |
| 1777459213 | 17.78° C | 28% | 1022.9 hPa | 0 mm | - | - | - |
| 1777458613 | 17.22° C | 28% | 1023 hPa | 0 mm | - | - | - |
| 1777458013 | 16.67° C | 27% | 1023.1 hPa | 0 mm | - | - | - |
| 1777457413 | 16.67° C | 27% | 1023.2 hPa | 0 mm | - | - | - |
| 1777456813 | 16.11° C | 28% | 1023 hPa | 0 mm | - | - | - |
| 1777456213 | 16.11° C | 28% | 1023.2 hPa | 0 mm | - | - | - |
| 1777455613 | 15.56° C | 29% | 1023.4 hPa | 0 mm | - | - | - |
| 1777455013 | 15.56° C | 29% | 1023.3 hPa | 0 mm | - | - | - |
| 1777454413 | 15.56° C | 30% | 1023.3 hPa | 0 mm | - | - | - |
| 1777453813 | 15° C | 31% | 1023.1 hPa | 0 mm | - | - | - |
| 1777453213 | 14.44° C | 30% | 1023.3 hPa | 0 mm | - | - | - |
* Rain latest hour (hover to see other rain measurements)
** Current wind speed in m/s (hover to see current wind gust speed)